Time,TemperatureF,DewpointF,PressureIn,WindDirection,WindDirectionDegrees,WindSpeedMPH,WindSpeedGustMPH,Humidity,HourlyPrecipIn,Conditions,Clouds,dailyrainin,SoftwareType,DateUTC
2013-07-01 00:01:00,75.3,67.2,29.83,NW,311,5.8,5.8,76,0.00,RA,,0.00,WeatherDisplay:10.37,2013-07-01 05:01:00,
2013-07-01 00:06:00,75.3,67.2,29.83,NW,311,4.0,4.0,76,0.00,RA,,0.00,WeatherDisplay:10.37,2013-07-01 05:06:00,
2013-07-01 00:11:00,75.3,67.2,29.83,NW,311,4.6,4.6,76,0.00,CLR,,0.00,WeatherDisplay:10.37,2013-07-01 05:11:00,
2013-07-01 00:16:00,75.3,67.2,29.83,NW,311,4.6,4.6,76,0.00,CLR,,0.00,WeatherDisplay:10.37,2013-07-01 05:16:00,
2013-07-01 00:21:00,75.3,67.2,29.83,NW,311,5.0,5.0,76,0.00,CLR,,0.00,WeatherDisplay:10.37,2013-07-01 05:21:00,
2013-07-01 00:26:00,75.3,67.2,29.83,NW,311,4.6,4.6,76,0.00,CLR,,0.00,WeatherDisplay:10.37,2013-07-01 05:26:00,
2013-07-01 00:31:00,75.3,67.2,29.83,NW,312,4.0,4.0,76,0.00,CLR,,0.00,WeatherDisplay:10.37,2013-07-01 05:31:00,
2013-07-01 00:36:00,75.3,67.6,29.83,NW,311,0.0,0.0,77,0.00,CLR,,0.00,WeatherDisplay:10.37,2013-07-01 05:36:00,
2013-07-01 00:41:00,75.1,67.4,29.83,NW,311,0.0,0.0,77,0.00,CLR,,0.00,WeatherDisplay:10.37,2013-07-01 05:41:00,
2013-07-01 00:46:00,75.0,67.3,29.83,NW,312,0.0,0.0,77,0.00,CLR,,0.00,WeatherDisplay:10.37,2013-07-01 05:46:00,
2013-07-01 00:51:00,74.8,67.5,29.83,NW,312,5.8,5.8,78,0.00,CLR,,0.00,WeatherDisplay:10.37,2013-07-01 05:51:00,
2013-07-01 00:56:00,74.7,67.4,29.83,NW,312,3.5,3.5,78,0.00,CLR,,0.00,WeatherDisplay:10.37,2013-07-01 05:56:00,
2013-07-01 01:01:00,74.5,67.2,29.83,NW,313,3.5,3.5,78,0.00,CLR,,0.00,WeatherDisplay:10.37,2013-07-01 06:01:00,
2013-07-01 01:06:00,74.4,67.5,29.83,NW,313,5.8,5.8,79,0.00,CLR,,0.00,WeatherDisplay:10.37,2013-07-01 06:06:00,
2013-07-01 01:11:00,74.2,67.3,29.83,NW,313,6.0,6.0,79,0.00,CLR,,0.00,WeatherDisplay:10.37,2013-07-01 06:11:00,
2013-07-01 01:16:00,74.1,67.2,29.83,NW,313,0.0,0.0,79,0.00,CLR,,0.00,WeatherDisplay:10.37,2013-07-01 06:16:00,
2013-07-01 01:21:00,74.0,67.1,29.83,NW,313,5.0,5.0,79,0.00,CLR,,0.00,WeatherDisplay:10.37,2013-07-01 06:21:00,
2013-07-01 01:26:00,73.9,67.0,29.83,NW,313,0.0,0.0,79,0.00,CLR,,0.00,WeatherDisplay:10.37,2013-07-01 06:26:00,
2013-07-01 01:31:00,73.9,67.0,29.83,NW,313,0.0,0.0,79,0.00,CLR,,0.00,WeatherDisplay:10.37,2013-07-01 06:31:00,
2013-07-01 01:36:00,73.8,66.9,29.83,NW,313,4.0,4.0,79,0.00,CLR,,0.00,WeatherDisplay:10.37,2013-07-01 06:36:00,
2013-07-01 01:41:00,73.8,66.9,29.83,NW,313,4.0,4.0,79,0.00,CLR,,0.00,WeatherDisplay:10.37,2013-07-01 06:41:00,
2013-07-01 01:46:00,73.7,66.8,29.83,NW,313,3.5,3.5,79,0.00,CLR,,0.00,WeatherDisplay:10.37,2013-07-01 06:46:00,
2013-07-01 01:51:00,73.7,66.0,29.84,NW,315,6.9,6.9,77,0.00,CLR,,0.00,WeatherDisplay:10.37,2013-07-01 06:51:00,
2013-07-01 01:56:00,74.0,65.2,29.84,NW,315,1.2,1.2,74,0.00,CLR,,0.00,WeatherDisplay:10.37,2013-07-01 06:56:00,
2013-07-01 02:01:00,74.6,65.4,29.84,NW,317,3.5,3.5,73,0.00,CLR,,0.00,WeatherDisplay:10.37,2013-07-01 07:01:00,
2013-07-01 02:06:00,75.0,65.4,29.84,NW,317,3.5,3.5,72,0.00,CLR,,0.00,WeatherDisplay:10.37,2013-07-01 07:06:00,
2013-07-01 02:11:00,75.5,65.4,29.84,NW,317,0.0,0.0,71,0.00,CLR,,0.00,WeatherDisplay:10.37,2013-07-01 07:11:00,
2013-07-01 02:16:00,75.8,65.3,29.84,NW,317,0.0,0.0,70,0.00,CLR,,0.00,WeatherDisplay:10.37,2013-07-01 07:16:00,
2013-07-01 02:21:00,76.2,65.3,29.84,NW,317,3.5,0.0,69,0.00,CLR,,0.00,WeatherDisplay:10.37,2013-07-01 07:21:00,
2013-07-01 02:26:00,76.3,65.4,29.85,NW,317,0.0,0.0,69,0.00,CLR,,0.00,WeatherDisplay:10.37,2013-07-01 07:26:00,
2013-07-01 02:31:00,76.3,65.0,29.84,NW,317,0.0,0.1,68,0.00,CLR,,0.00,WeatherDisplay:10.37,2013-07-01 07:31:00,
2013-07-01 02:36:00,76.3,64.5,29.84,NW,318,0.0,0.0,67,0.00,CLR,,0.00,WeatherDisplay:10.37,2013-07-01 07:36:00,
2013-07-01 02:41:00,76.3,63.2,29.84,NW,319,3.5,3.5,64,0.00,CLR,,0.00,WeatherDisplay:10.37,2013-07-01 07:41:00,
2013-07-01 02:46:00,76.4,62.9,29.85,NW,319,0.0,0.0,63,0.00,CLR,,0.00,WeatherDisplay:10.37,2013-07-01 07:46:00,
2013-07-01 02:51:00,76.4,62.9,29.85,NW,321,3.5,3.5,63,0.00,CLR,,0.00,WeatherDisplay:10.37,2013-07-01 07:51:00,
2013-07-01 02:56:00,76.4,62.0,29.84,NW,321,0.0,0.0,61,0.00,CLR,,0.00,WeatherDisplay:10.37,2013-07-01 07:56:00,
2013-07-01 03:01:00,76.4,62.0,29.85,NW,321,0.0,0.0,61,0.00,CLR,,0.00,WeatherDisplay:10.37,2013-07-01 08:01:00,
2013-07-01 03:06:00,76.4,61.5,29.85,NW,321,1.2,0.0,60,0.00,CLR,,0.00,WeatherDisplay:10.37,2013-07-01 08:06:00,
2013-07-01 03:11:00,76.3,61.4,29.85,NW,321,0.0,0.0,60,0.00,CLR,,0.00,WeatherDisplay:10.37,2013-07-01 08:11:00,
2013-07-01 03:16:00,76.2,60.8,29.85,NW,321,0.0,0.0,59,0.00,CLR,,0.00,WeatherDisplay:10.37,2013-07-01 08:16:00,
2013-07-01 03:21:00,76.2,60.3,29.85,NW,322,3.0,3.0,58,0.00,CLR,,0.00,WeatherDisplay:10.37,2013-07-01 08:21:00,
2013-07-01 03:26:00,76.2,60.3,29.85,NW,325,2.3,2.3,58,0.00,CLR,,0.00,WeatherDisplay:10.37,2013-07-01 08:26:00,
2013-07-01 03:31:00,76.2,59.9,29.86,NNW,327,0.0,0.0,57,0.00,CLR,,0.00,WeatherDisplay:10.37,2013-07-01 08:31:00,
2013-07-01 03:36:00,76.2,59.9,29.86,NNW,331,2.3,2.3,57,0.00,CLR,,0.00,WeatherDisplay:10.37,2013-07-01 08:36:00,
2013-07-01 03:41:00,76.2,59.9,29.86,NNW,331,0.0,0.0,57,0.00,CLR,,0.00,WeatherDisplay:10.37,2013-07-01 08:41:00,
2013-07-01 03:46:00,76.1,59.8,29.86,NNW,331,0.0,0.0,57,0.00,CLR,,0.00,WeatherDisplay:10.37,2013-07-01 08:46:00,
2013-07-01 03:51:00,76.0,59.2,29.86,NNW,331,2.3,2.3,56,0.00,CLR,,0.00,WeatherDisplay:10.37,2013-07-01 08:51:00,
2013-07-01 03:56:00,75.9,59.1,29.87,NNW,331,0.0,0.0,56,0.00,CLR,,0.00,WeatherDisplay:10.37,2013-07-01 08:56:00,
2013-07-01 04:01:00,75.8,59.0,29.87,NNW,331,0.0,0.0,56,0.00,CLR,,0.00,WeatherDisplay:10.37,2013-07-01 09:01:00,
2013-07-01 04:06:00,75.7,58.9,29.87,NNW,332,2.3,2.3,56,0.00,CLR,,0.00,WeatherDisplay:10.37,2013-07-01 09:06:00,
2013-07-01 04:11:00,75.6,58.8,29.88,NNW,331,0.0,0.0,56,0.00,CLR,,0.00,WeatherDisplay:10.37,2013-07-01 09:11:00,
2013-07-01 04:16:00,75.5,58.7,29.88,NNW,332,1.2,1.2,56,0.00,CLR,,0.00,WeatherDisplay:10.37,2013-07-01 09:16:00,
2013-07-01 04:21:00,75.4,58.6,29.88,NNW,332,0.0,0.0,56,0.00,CLR,,0.00,WeatherDisplay:10.37,2013-07-01 09:21:00,
2013-07-01 04:26:00,75.4,58.1,29.88,NNW,333,2.3,2.3,55,0.00,CLR,,0.00,WeatherDisplay:10.37,2013-07-01 09:26:00,
2013-07-01 04:31:00,75.3,58.0,29.89,NNW,333,2.3,2.3,55,0.00,CLR,,0.00,WeatherDisplay:10.37,2013-07-01 09:31:00,
2013-07-01 04:36:00,75.3,57.5,29.89,NNW,336,3.5,3.5,54,0.00,CLR,,0.00,WeatherDisplay:10.37,2013-07-01 09:36:00,
2013-07-01 04:41:00,75.3,57.5,29.89,NNW,336,1.2,1.2,54,0.00,CLR,,0.00,WeatherDisplay:10.37,2013-07-01 09:41:00,
2013-07-01 04:46:00,75.3,57.5,29.89,NNW,338,3.5,3.5,54,0.00,CLR,,0.00,WeatherDisplay:10.37,2013-07-01 09:46:00,
2013-07-01 04:51:00,75.2,57.9,29.89,NNW,338,2.3,2.3,55,0.00,CLR,,0.00,WeatherDisplay:10.37,2013-07-01 09:51:00,
2013-07-01 04:56:00,75.1,57.8,29.89,NNW,338,0.0,0.0,55,0.00,CLR,,0.00,WeatherDisplay:10.37,2013-07-01 09:56:00,
2013-07-01 05:01:00,75.1,57.8,29.89,NNW,339,0.0,0.0,55,0.00,CLR,,0.00,WeatherDisplay:10.37,2013-07-01 10:01:00,
2013-07-01 05:06:00,75.0,57.2,29.89,NNW,340,3.5,3.5,54,0.00,CLR,,0.00,WeatherDisplay:10.37,2013-07-01 10:06:00,
2013-07-01 05:11:00,74.9,57.6,29.89,NNW,340,0.0,0.0,55,0.00,CLR,,0.00,WeatherDisplay:10.37,2013-07-01 10:11:00,
2013-07-01 05:16:00,74.8,57.5,29.89,NNW,340,0.0,0.0,55,0.00,CLR,,0.00,WeatherDisplay:10.37,2013-07-01 10:16:00,
2013-07-01 05:21:00,74.8,57.5,29.90,NNW,340,0.0,0.0,55,0.00,CLR,,0.00,WeatherDisplay:10.37,2013-07-01 10:21:00,
2013-07-01 05:26:00,74.7,57.5,29.90,NNW,340,0.0,0.0,55,0.00,CLR,,0.00,WeatherDisplay:10.37,2013-07-01 10:26:00,
2013-07-01 05:31:00,74.6,57.4,29.90,NNW,340,0.0,0.0,55,0.00,CLR,,0.00,WeatherDisplay:10.37,2013-07-01 10:31:00,
2013-07-01 05:36:00,74.5,57.3,29.90,NNW,340,0.0,0.0,55,0.00,CLR,,0.00,WeatherDisplay:10.37,2013-07-01 10:36:00,
2013-07-01 05:41:00,74.5,57.3,29.90,NNW,340,0.0,0.0,55,0.00,CLR,,0.00,WeatherDisplay:10.37,2013-07-01 10:41:00,
2013-07-01 05:46:00,74.5,57.3,29.90,NNW,340,0.0,0.0,55,0.00,CLR,,0.00,WeatherDisplay:10.37,2013-07-01 10:46:00,
2013-07-01 05:51:00,74.4,57.2,29.90,NNW,340,0.0,0.0,55,0.00,CLR,,0.00,WeatherDisplay:10.37,2013-07-01 10:51:00,
2013-07-01 05:56:00,74.3,57.1,29.90,NNW,340,0.0,0.0,55,0.00,CLR,,0.00,WeatherDisplay:10.37,2013-07-01 10:56:00,
2013-07-01 06:01:00,74.3,57.6,29.91,NNW,340,0.0,0.0,56,0.00,CLR,,0.00,WeatherDisplay:10.37,2013-07-01 11:01:00,
2013-07-01 06:06:00,74.1,56.9,29.91,NNW,340,0.0,0.0,55,0.00,CLR,,0.00,WeatherDisplay:10.37,2013-07-01 11:06:00,
2013-07-01 06:11:00,74.0,57.3,29.91,NNW,340,0.0,0.0,56,0.00,CLR,,0.00,WeatherDisplay:10.37,2013-07-01 11:11:00,
2013-07-01 06:16:00,73.9,56.7,29.91,NNW,340,0.0,0.0,55,0.00,CLR,,0.00,WeatherDisplay:10.37,2013-07-01 11:16:00,
2013-07-01 06:21:00,73.8,57.1,29.91,NNW,340,0.0,0.0,56,0.00,CLR,,0.00,WeatherDisplay:10.37,2013-07-01 11:21:00,
2013-07-01 06:26:00,73.7,57.0,29.91,NNW,340,0.0,0.0,56,0.00,CLR,,0.00,WeatherDisplay:10.37,2013-07-01 11:26:00,
2013-07-01 06:31:00,73.6,56.9,29.91,NNW,340,0.0,0.0,56,0.00,CLR,,0.00,WeatherDisplay:10.37,2013-07-01 11:31:00,
2013-07-01 06:36:00,73.6,56.9,29.91,NNW,340,0.0,0.0,56,0.00,CLR,,0.00,WeatherDisplay:10.37,2013-07-01 11:36:00,
2013-07-01 06:41:00,73.5,56.8,29.91,NNW,340,0.0,0.0,56,0.00,CLR,,0.00,WeatherDisplay:10.37,2013-07-01 11:41:00,
2013-07-01 06:46:00,73.5,56.8,29.91,NNW,340,0.0,0.0,56,0.00,CLR,,0.00,WeatherDisplay:10.37,2013-07-01 11:46:00,
2013-07-01 06:51:00,73.4,56.7,29.92,NNW,340,2.3,2.3,56,0.00,CLR,,0.00,WeatherDisplay:10.37,2013-07-01 11:51:00,
2013-07-01 06:56:00,73.4,56.7,29.92,NNW,340,1.2,1.2,56,0.00,CLR,,0.00,WeatherDisplay:10.37,2013-07-01 11:56:00,
2013-07-01 07:01:00,73.3,56.7,29.92,NNW,340,0.0,0.0,56,0.00,CLR,,0.00,WeatherDisplay:10.37,2013-07-01 12:01:00,
2013-07-01 07:06:00,73.3,56.7,29.92,NNW,340,0.0,0.0,56,0.00,CLR,,0.00,WeatherDisplay:10.37,2013-07-01 12:06:00,
2013-07-01 07:11:00,73.3,57.1,29.92,NNW,340,0.0,0.0,57,0.00,CLR,,0.00,WeatherDisplay:10.37,2013-07-01 12:11:00,
2013-07-01 07:16:00,73.4,57.2,29.93,NNW,340,0.0,0.0,57,0.00,CLR,,0.00,WeatherDisplay:10.37,2013-07-01 12:16:00,
2013-07-01 07:21:00,73.5,57.3,29.93,NNW,340,0.0,0.0,57,0.00,CLR,,0.00,WeatherDisplay:10.37,2013-07-01 12:21:00,
2013-07-01 07:26:00,73.5,57.3,29.93,NNW,340,2.3,2.3,57,0.00,CLR,,0.00,WeatherDisplay:10.37,2013-07-01 12:26:00,
2013-07-01 07:31:00,73.6,57.4,29.93,NNW,340,0.0,0.0,57,0.00,CLR,,0.00,WeatherDisplay:10.37,2013-07-01 12:31:00,
2013-07-01 07:36:00,73.6,57.4,29.94,NNW,340,3.5,3.5,57,0.00,CLR,,0.00,WeatherDisplay:10.37,2013-07-01 12:36:00,
2013-07-01 07:41:00,73.7,57.5,29.94,NNW,340,3.5,3.5,57,0.00,CLR,,0.00,WeatherDisplay:10.37,2013-07-01 12:41:00,
2013-07-01 07:46:00,73.7,57.5,29.94,NNW,340,3.5,3.5,57,0.00,CLR,,0.00,WeatherDisplay:10.37,2013-07-01 12:46:00,
2013-07-01 07:51:00,73.6,57.9,29.94,NNW,340,0.0,0.0,58,0.00,CLR,,0.00,WeatherDisplay:10.37,2013-07-01 12:51:00,
2013-07-01 07:56:00,73.7,58.0,29.94,NNW,340,3.5,3.5,58,0.00,CLR,,0.00,WeatherDisplay:10.37,2013-07-01 12:56:00,
2013-07-01 08:01:00,73.8,58.1,29.94,NNW,340,0.0,0.0,58,0.00,CLR,,0.00,WeatherDisplay:10.37,2013-07-01 13:01:00,
2013-07-01 08:06:00,74.1,58.4,29.94,NNW,340,0.0,0.0,58,0.00,CLR,,0.00,WeatherDisplay:10.37,2013-07-01 13:06:00,
2013-07-01 08:11:00,74.4,58.7,29.94,NNW,340,4.6,4.6,58,0.00,CLR,,0.00,WeatherDisplay:10.37,2013-07-01 13:11:00,
2013-07-01 08:16:00,74.6,58.4,29.94,NNW,340,3.5,3.5,57,0.00,CLR,,0.00,WeatherDisplay:10.37,2013-07-01 13:16:00,
2013-07-01 08:21:00,75.0,58.7,29.95,NNW,340,1.0,1.0,57,0.00,CLR,,0.00,WeatherDisplay:10.37,2013-07-01 13:21:00,
2013-07-01 08:26:00,75.5,58.7,29.95,NNW,341,1.0,1.0,56,0.00,CLR,,0.00,WeatherDisplay:10.37,2013-07-01 13:26:00,
2013-07-01 08:31:00,75.8,58.5,29.95,NNW,344,0.0,0.0,55,0.00,CLR,,0.00,WeatherDisplay:10.37,2013-07-01 13:31:00,
2013-07-01 08:36:00,76.1,58.2,29.95,North,349,3.5,0.0,54,0.00,CLR,,0.00,WeatherDisplay:10.37,2013-07-01 13:36:00,
2013-07-01 08:41:00,76.6,58.7,29.95,North,9,4.0,4.0,54,0.00,CLR,,0.00,WeatherDisplay:10.37,2013-07-01 13:41:00,
2013-07-01 08:46:00,77.2,58.7,29.95,North,11,5.8,5.8,53,0.00,CLR,,0.00,WeatherDisplay:10.37,2013-07-01 13:46:00,
2013-07-01 08:51:00,77.7,58.7,29.95,North,11,1.2,1.2,52,0.00,CLR,,0.00,WeatherDisplay:10.37,2013-07-01 13:51:00,
2013-07-01 08:56:00,78.0,58.4,29.95,North,11,2.3,2.3,51,0.00,CLR,,0.00,WeatherDisplay:10.37,2013-07-01 13:56:00,
2013-07-01 09:01:00,78.4,58.8,29.95,NNE,17,2.3,2.3,51,0.00,CLR,,0.00,WeatherDisplay:10.37,2013-07-01 14:01:00,
2013-07-01 09:06:00,78.7,58.5,29.95,NNE,19,10.0,10.0,50,0.00,CLR,,0.00,WeatherDisplay:10.37,2013-07-01 14:06:00,
2013-07-01 09:11:00,79.0,58.8,29.95,NNE,24,7.0,7.0,50,0.00,CLR,,0.00,WeatherDisplay:10.37,2013-07-01 14:11:00,
2013-07-01 09:16:00,79.1,58.3,29.95,NNE,29,0.0,0.0,49,0.00,CLR,,0.00,WeatherDisplay:10.37,2013-07-01 14:16:00,
2013-07-01 09:21:00,79.3,58.5,29.96,NNE,32,3.5,3.5,49,0.00,CLR,,0.00,WeatherDisplay:10.37,2013-07-01 14:21:00,
2013-07-01 09:26:00,79.6,58.8,29.95,NE,34,1.2,1.2,49,0.00,CLR,,0.00,WeatherDisplay:10.37,2013-07-01 14:26:00,
2013-07-01 09:31:00,79.8,58.4,29.95,NE,43,3.5,3.5,48,0.00,CLR,,0.00,WeatherDisplay:10.37,2013-07-01 14:31:00,
2013-07-01 09:36:00,80.0,58.5,29.95,NE,49,1.2,1.2,48,0.00,CLR,,0.00,WeatherDisplay:10.37,2013-07-01 14:36:00,
2013-07-01 09:41:00,80.2,58.7,29.95,NE,51,3.5,3.5,48,0.00,CLR,,0.00,WeatherDisplay:10.37,2013-07-01 14:41:00,
2013-07-01 09:46:00,80.3,58.2,29.96,ENE,57,1.2,0.0,47,0.00,CLR,,0.00,WeatherDisplay:10.37,2013-07-01 14:46:00,
2013-07-01 09:51:00,80.6,58.5,29.95,NNE,33,6.9,6.9,47,0.00,CLR,,0.00,WeatherDisplay:10.37,2013-07-01 14:51:00,
2013-07-01 09:56:00,80.9,58.2,29.95,ENE,74,8.1,8.1,46,0.00,CLR,,0.00,WeatherDisplay:10.37,2013-07-01 14:56:00,
2013-07-01 10:01:00,81.0,58.3,29.95,ENE,72,4.6,4.6,46,0.00,CLR,,0.00,WeatherDisplay:10.37,2013-07-01 15:01:00,
2013-07-01 10:06:00,81.2,59.1,29.95,ENE,70,0.0,0.0,47,0.00,CLR,,0.00,WeatherDisplay:10.37,2013-07-01 15:06:00,
2013-07-01 10:11:00,81.5,58.7,29.95,ENE,64,0.0,0.0,46,0.00,CLR,,0.00,WeatherDisplay:10.37,2013-07-01 15:11:00,
2013-07-01 10:16:00,82.1,59.3,29.95,ENE,64,0.0,0.0,46,0.00,CLR,,0.00,WeatherDisplay:10.37,2013-07-01 15:16:00,
2013-07-01 10:21:00,82.5,58.4,29.95,NE,37,5.0,5.0,44,0.00,CLR,,0.00,WeatherDisplay:10.37,2013-07-01 15:21:00,
2013-07-01 10:26:00,82.8,58.7,29.95,NNE,33,0.0,0.0,44,0.00,CLR,,0.00,WeatherDisplay:10.37,2013-07-01 15:26:00,
2013-07-01 10:31:00,83.0,58.2,29.95,NE,41,0.0,0.0,43,0.00,CLR,,0.00,WeatherDisplay:10.37,2013-07-01 15:31:00,
2013-07-01 10:36:00,83.2,58.4,29.95,NE,38,1.2,0.0,43,0.00,CLR,,0.00,WeatherDisplay:10.37,2013-07-01 15:36:00,
2013-07-01 10:41:00,83.4,57.9,29.96,North,9,9.2,9.2,42,0.00,CLR,,0.00,WeatherDisplay:10.37,2013-07-01 15:41:00,
2013-07-01 10:46:00,83.6,58.1,29.96,North,9,6.9,6.9,42,0.00,CLR,,0.00,WeatherDisplay:10.37,2013-07-01 15:46:00,
2013-07-01 10:51:00,83.6,57.4,29.96,North,360,10.4,10.4,41,0.00,CLR,,0.00,WeatherDisplay:10.37,2013-07-01 15:51:00,
2013-07-01 10:56:00,83.6,57.4,29.96,ENE,63,9.2,9.2,41,0.00,CLR,,0.00,WeatherDisplay:10.37,2013-07-01 15:56:00,
2013-07-01 11:01:00,83.6,58.1,29.95,ENE,60,4.6,4.6,42,0.00,CLR,,0.00,WeatherDisplay:10.37,2013-07-01 16:01:00,
2013-07-01 11:06:00,84.0,58.4,29.96,NNE,15,4.0,4.0,42,0.00,CLR,,0.00,WeatherDisplay:10.37,2013-07-01 16:06:00,
2013-07-01 11:11:00,84.3,57.3,29.96,North,351,8.1,8.1,40,0.00,CLR,,0.00,WeatherDisplay:10.37,2013-07-01 16:11:00,
2013-07-01 11:16:00,84.2,56.6,29.96,NE,34,6.9,6.9,39,0.00,CLR,,0.00,WeatherDisplay:10.37,2013-07-01 16:16:00,
2013-07-01 11:21:00,84.1,56.5,29.96,NNE,18,7.0,7.0,39,0.00,CLR,,0.00,WeatherDisplay:10.37,2013-07-01 16:21:00,
2013-07-01 11:26:00,84.1,56.5,29.96,North,5,4.6,4.6,39,0.00,CLR,,0.00,WeatherDisplay:10.37,2013-07-01 16:26:00,
2013-07-01 11:31:00,84.4,58.1,29.96,North,5,0.0,0.0,41,0.00,CLR,,0.00,WeatherDisplay:10.37,2013-07-01 16:31:00,
2013-07-01 11:36:00,84.5,56.8,29.95,ENE,57,5.8,5.8,39,0.00,CLR,,0.00,WeatherDisplay:10.37,2013-07-01 16:36:00,
2013-07-01 11:41:00,84.6,56.9,29.95,NE,42,8.1,8.1,39,0.00,CLR,,0.00,WeatherDisplay:10.37,2013-07-01 16:41:00,
2013-07-01 11:46:00,84.7,56.3,29.95,NE,51,5.8,5.8,38,0.00,CLR,,0.00,WeatherDisplay:10.37,2013-07-01 16:46:00,
2013-07-01 11:51:00,84.7,57.0,29.95,NNE,22,5.8,5.8,39,0.00,CLR,,0.00,WeatherDisplay:10.37,2013-07-01 16:51:00,
2013-07-01 11:56:00,84.8,57.1,29.95,NNE,19,1.2,0.0,39,0.00,CLR,,0.00,WeatherDisplay:10.37,2013-07-01 16:56:00,
2013-07-01 12:01:00,85.0,56.5,29.95,North,5,6.9,6.9,38,0.00,CLR,,0.00,WeatherDisplay:10.37,2013-07-01 17:01:00,
2013-07-01 12:06:00,85.4,57.6,29.95,North,355,4.6,4.6,39,0.00,CLR,,0.00,WeatherDisplay:10.37,2013-07-01 17:06:00,
2013-07-01 12:11:00,85.6,57.1,29.95,North,5,12.7,12.7,38,0.00,CLR,,0.00,WeatherDisplay:10.37,2013-07-01 17:11:00,
2013-07-01 12:16:00,85.8,57.3,29.95,NNE,31,5.8,5.8,38,0.00,CLR,,0.00,WeatherDisplay:10.37,2013-07-01 17:16:00,
2013-07-01 12:21:00,86.0,55.9,29.95,North,360,4.6,4.6,36,0.00,CLR,,0.00,WeatherDisplay:10.37,2013-07-01 17:21:00,
2013-07-01 12:26:00,86.1,56.0,29.95,ENE,63,5.0,5.0,36,0.00,CLR,,0.00,WeatherDisplay:10.37,2013-07-01 17:26:00,
2013-07-01 12:31:00,86.3,56.2,29.95,North,355,14.0,14.0,36,0.00,CLR,,0.00,WeatherDisplay:10.37,2013-07-01 17:31:00,
2013-07-01 12:36:00,86.0,56.7,29.95,NNW,331,12.0,12.0,37,0.00,CLR,,0.00,WeatherDisplay:10.37,2013-07-01 17:36:00,
2013-07-01 12:41:00,85.6,56.3,29.95,NW,325,13.0,13.0,37,0.00,CLR,,0.00,WeatherDisplay:10.37,2013-07-01 17:41:00,
2013-07-01 12:46:00,85.4,56.9,29.95,North,355,15.0,15.0,38,0.00,CLR,,0.00,WeatherDisplay:10.37,2013-07-01 17:46:00,
2013-07-01 12:51:00,85.6,57.1,29.94,NNW,345,11.5,11.5,38,0.00,CLR,,0.00,WeatherDisplay:10.37,2013-07-01 17:51:00,
2013-07-01 12:56:00,85.8,57.3,29.94,NNW,327,10.0,10.0,38,0.00,CLR,,0.00,WeatherDisplay:10.37,2013-07-01 17:56:00,
2013-07-01 13:01:00,85.6,57.1,29.94,NNW,346,11.5,11.5,38,0.00,CLR,,0.00,WeatherDisplay:10.37,2013-07-01 18:01:00,
2013-07-01 13:06:00,85.5,57.0,29.95,North,9,6.9,6.9,38,0.00,CLR,,0.00,WeatherDisplay:10.37,2013-07-01 18:06:00,
2013-07-01 13:11:00,85.5,57.0,29.95,North,360,11.5,11.5,38,0.00,CLR,,0.00,WeatherDisplay:10.37,2013-07-01 18:11:00,
2013-07-01 13:16:00,85.4,56.9,29.94,North,355,12.7,12.7,38,0.00,CLR,,0.00,WeatherDisplay:10.37,2013-07-01 18:16:00,
2013-07-01 13:21:00,85.2,56.7,29.95,North,5,10.4,10.4,38,0.00,CLR,,0.00,WeatherDisplay:10.37,2013-07-01 18:21:00,
2013-07-01 13:26:00,85.0,56.5,29.95,NNW,348,12.7,12.7,38,0.00,CLR,,0.00,WeatherDisplay:10.37,2013-07-01 18:26:00,
2013-07-01 13:31:00,84.6,56.2,29.95,NNW,337,9.2,9.2,38,0.00,CLR,,0.00,WeatherDisplay:10.37,2013-07-01 18:31:00,
2013-07-01 13:36:00,84.1,56.5,29.95,North,349,11.5,11.5,39,0.00,CLR,,0.00,WeatherDisplay:10.37,2013-07-01 18:36:00,
2013-07-01 13:41:00,83.8,56.9,29.95,North,355,9.2,9.2,40,0.00,CLR,,0.00,WeatherDisplay:10.37,2013-07-01 18:41:00,
2013-07-01 13:46:00,83.5,57.3,29.95,North,360,11.0,11.0,41,0.00,CLR,,0.00,WeatherDisplay:10.37,2013-07-01 18:46:00,
2013-07-01 13:51:00,83.0,56.9,29.95,NNW,329,10.4,10.4,41,0.00,CLR,,0.00,WeatherDisplay:10.37,2013-07-01 18:51:00,
2013-07-01 13:56:00,82.6,57.2,29.94,North,355,11.5,11.5,42,0.00,CLR,,0.00,WeatherDisplay:10.37,2013-07-01 18:56:00,
2013-07-01 14:01:00,82.3,56.9,29.94,North,355,11.5,11.5,42,0.00,CLR,,0.00,WeatherDisplay:10.37,2013-07-01 19:01:00,
2013-07-01 14:06:00,82.0,56.6,29.94,North,350,9.2,9.2,42,0.00,CLR,,0.00,WeatherDisplay:10.37,2013-07-01 19:06:00,
2013-07-01 14:11:00,81.8,56.5,29.94,North,360,9.2,9.2,42,0.00,CLR,,0.00,WeatherDisplay:10.37,2013-07-01 19:11:00,
2013-07-01 14:16:00,81.8,57.1,29.94,North,355,8.0,8.0,43,0.00,CLR,,0.00,WeatherDisplay:10.37,2013-07-01 19:16:00,
2013-07-01 14:21:00,81.7,57.0,29.93,North,355,0.0,0.0,43,0.00,CLR,,0.00,WeatherDisplay:10.37,2013-07-01 19:21:00,
2013-07-01 14:26:00,81.7,57.0,29.93,North,355,0.0,0.0,43,0.00,CLR,,0.00,WeatherDisplay:10.37,2013-07-01 19:26:00,
2013-07-01 14:31:00,81.6,57.6,29.93,NW,318,11.5,11.5,44,0.00,CLR,,0.00,WeatherDisplay:10.37,2013-07-01 19:31:00,
2013-07-01 14:36:00,81.5,57.5,29.93,NW,320,6.0,6.0,44,0.00,CLR,,0.00,WeatherDisplay:10.37,2013-07-01 19:36:00,
2013-07-01 14:41:00,81.4,56.8,29.93,NW,320,0.0,0.0,43,0.00,CLR,,0.00,WeatherDisplay:10.37,2013-07-01 19:41:00,
2013-07-01 14:46:00,81.2,57.2,29.93,NW,320,3.5,3.5,44,0.00,CLR,,0.00,WeatherDisplay:10.37,2013-07-01 19:46:00,
2013-07-01 14:51:00,81.1,57.1,29.93,NW,319,3.5,3.5,44,0.00,CLR,,0.00,WeatherDisplay:10.37,2013-07-01 19:51:00,
2013-07-01 14:56:00,81.0,57.7,29.93,NW,320,3.5,3.5,45,0.00,CLR,,0.00,WeatherDisplay:10.37,2013-07-01 19:56:00,
2013-07-01 15:01:00,80.9,56.9,29.93,NW,319,0.0,0.0,44,0.00,CLR,,0.00,WeatherDisplay:10.37,2013-07-01 20:01:00,
2013-07-01 15:06:00,80.9,57.6,29.93,NW,320,0.0,0.0,45,0.00,CLR,,0.00,WeatherDisplay:10.37,2013-07-01 20:06:00,
2013-07-01 15:11:00,81.0,57.7,29.93,NW,314,5.8,5.8,45,0.00,CLR,,0.00,WeatherDisplay:10.37,2013-07-01 20:11:00,
2013-07-01 15:16:00,80.9,58.2,29.92,NW,310,9.2,9.2,46,0.00,CLR,,0.00,WeatherDisplay:10.37,2013-07-01 20:16:00,
2013-07-01 15:21:00,80.9,58.2,29.92,NW,309,5.8,5.8,46,0.00,CLR,,0.00,WeatherDisplay:10.37,2013-07-01 20:21:00,
2013-07-01 15:26:00,80.8,58.1,29.92,WNW,303,9.2,9.2,46,0.00,CLR,,0.00,WeatherDisplay:10.37,2013-07-01 20:26:00,
2013-07-01 15:31:00,80.7,58.6,29.92,WNW,303,9.2,9.2,47,0.00,CLR,,0.00,WeatherDisplay:10.37,2013-07-01 20:31:00,
2013-07-01 15:36:00,80.6,58.5,29.92,WNW,302,9.2,9.2,47,0.00,CLR,,0.00,WeatherDisplay:10.37,2013-07-01 20:36:00,
2013-07-01 15:41:00,80.7,59.2,29.92,WNW,299,9.2,9.2,48,0.00,CLR,,0.00,WeatherDisplay:10.37,2013-07-01 20:41:00,
2013-07-01 15:46:00,80.9,58.8,29.92,WNW,294,6.9,6.9,47,0.00,CLR,,0.00,WeatherDisplay:10.37,2013-07-01 20:46:00,
2013-07-01 15:51:00,81.3,57.9,29.92,NW,306,10.0,10.0,45,0.00,CLR,,0.00,WeatherDisplay:10.37,2013-07-01 20:51:00,
2013-07-01 15:56:00,81.7,58.9,29.92,WNW,282,7.0,7.0,46,0.00,CLR,,0.00,WeatherDisplay:10.37,2013-07-01 20:56:00,
2013-07-01 16:01:00,81.8,58.4,29.91,WNW,288,12.0,12.0,45,0.00,CLR,,0.00,WeatherDisplay:10.37,2013-07-01 21:01:00,
2013-07-01 16:06:00,81.8,58.4,29.91,WNW,288,10.0,10.0,45,0.00,CLR,,0.00,WeatherDisplay:10.37,2013-07-01 21:06:00,
2013-07-01 16:11:00,81.8,59.0,29.91,WNW,295,10.4,10.4,46,0.00,CLR,,0.00,WeatherDisplay:10.37,2013-07-01 21:11:00,
2013-07-01 16:16:00,81.8,59.0,29.91,WNW,300,5.8,5.8,46,0.00,CLR,,0.00,WeatherDisplay:10.37,2013-07-01 21:16:00,
2013-07-01 16:21:00,81.8,59.0,29.91,WNW,298,5.0,5.0,46,0.00,CLR,,0.00,WeatherDisplay:10.37,2013-07-01 21:21:00,
2013-07-01 16:26:00,81.9,59.1,29.91,NW,304,11.0,11.0,46,0.00,CLR,,0.00,WeatherDisplay:10.37,2013-07-01 21:26:00,
2013-07-01 16:31:00,81.8,59.0,29.91,West,277,11.0,11.0,46,0.00,CLR,,0.00,WeatherDisplay:10.37,2013-07-01 21:31:00,
2013-07-01 16:36:00,81.8,59.6,29.91,WNW,291,3.5,0.0,47,0.00,CLR,,0.00,WeatherDisplay:10.37,2013-07-01 21:36:00,
2013-07-01 16:41:00,81.9,59.1,29.91,WNW,292,10.4,10.4,46,0.00,CLR,,0.00,WeatherDisplay:10.37,2013-07-01 21:41:00,
2013-07-01 16:46:00,81.9,59.7,29.91,WNW,300,11.5,11.5,47,0.00,CLR,,0.00,WeatherDisplay:10.37,2013-07-01 21:46:00,
2013-07-01 16:51:00,81.8,60.2,29.90,WNW,302,4.0,4.0,48,0.00,CLR,,0.00,WeatherDisplay:10.37,2013-07-01 21:51:00,
2013-07-01 16:56:00,81.9,60.3,29.90,WNW,302,9.2,9.2,48,0.00,CLR,,0.00,WeatherDisplay:10.37,2013-07-01 21:56:00,
2013-07-01 17:01:00,82.0,59.8,29.90,WNW,299,10.4,10.4,47,0.00,CLR,,0.00,WeatherDisplay:10.37,2013-07-01 22:01:00,
2013-07-01 17:06:00,82.0,59.8,29.90,WNW,295,11.5,11.5,47,0.00,CLR,,0.00,WeatherDisplay:10.37,2013-07-01 22:06:00,
2013-07-01 17:11:00,82.1,59.9,29.90,WNW,298,12.0,12.0,47,0.00,CLR,,0.00,WeatherDisplay:10.37,2013-07-01 22:11:00,
2013-07-01 17:16:00,82.2,60.0,29.90,NW,306,9.2,9.2,47,0.00,CLR,,0.00,WeatherDisplay:10.37,2013-07-01 22:16:00,
2013-07-01 17:21:00,82.3,59.4,29.90,NW,306,10.0,10.0,46,0.00,CLR,,0.00,WeatherDisplay:10.37,2013-07-01 22:21:00,
2013-07-01 17:26:00,82.3,60.1,29.90,NW,305,0.0,0.0,47,0.00,CLR,,0.00,WeatherDisplay:10.37,2013-07-01 22:26:00,
2013-07-01 17:31:00,82.4,59.5,29.90,NW,304,10.4,10.4,46,0.00,CLR,,0.00,WeatherDisplay:10.37,2013-07-01 22:31:00,
2013-07-01 17:36:00,82.5,60.2,29.90,NW,304,6.9,6.9,47,0.00,CLR,,0.00,WeatherDisplay:10.37,2013-07-01 22:36:00,
2013-07-01 17:41:00,82.5,60.2,29.90,WNW,301,5.0,5.0,47,0.00,CLR,,0.00,WeatherDisplay:10.37,2013-07-01 22:41:00,
2013-07-01 17:46:00,82.5,60.2,29.90,WNW,301,4.6,4.6,47,0.00,CLR,,0.00,WeatherDisplay:10.37,2013-07-01 22:46:00,
2013-07-01 17:51:00,82.5,59.6,29.90,WNW,303,6.9,6.9,46,0.00,CLR,,0.00,WeatherDisplay:10.37,2013-07-01 22:51:00,
2013-07-01 17:56:00,82.6,60.3,29.90,WNW,303,0.0,0.0,47,0.00,CLR,,0.00,WeatherDisplay:10.37,2013-07-01 22:56:00,
2013-07-01 18:01:00,82.7,61.0,29.90,WNW,303,0.0,0.0,48,0.00,CLR,,0.00,WeatherDisplay:10.37,2013-07-01 23:01:00,
2013-07-01 18:06:00,82.8,60.5,29.90,WNW,303,5.8,5.8,47,0.00,CLR,,0.00,WeatherDisplay:10.37,2013-07-01 23:06:00,
2013-07-01 18:11:00,82.9,58.7,29.90,NW,306,0.0,0.5,44,0.00,CLR,,0.00,WeatherDisplay:10.37,2013-07-01 23:11:00,
2013-07-01 18:16:00,83.0,56.2,29.90,NW,317,6.9,6.9,40,0.00,CLR,,0.00,WeatherDisplay:10.37,2013-07-01 23:16:00,
2013-07-01 18:21:00,83.2,55.0,29.90,North,10,4.6,4.6,38,0.00,CLR,,0.00,WeatherDisplay:10.37,2013-07-01 23:21:00,
2013-07-01 18:26:00,83.3,54.3,29.90,North,10,10.4,10.4,37,0.00,CLR,,0.00,WeatherDisplay:10.37,2013-07-01 23:26:00,
2013-07-01 18:31:00,83.3,54.3,29.90,North,9,9.2,9.2,37,0.00,CLR,,0.00,WeatherDisplay:10.37,2013-07-01 23:31:00,
2013-07-01 18:36:00,83.3,54.3,29.90,North,9,6.9,6.9,37,0.00,CLR,,0.00,WeatherDisplay:10.37,2013-07-01 23:36:00,
2013-07-01 18:41:00,83.2,54.2,29.90,North,350,10.4,10.4,37,0.00,CLR,,0.00,WeatherDisplay:10.37,2013-07-01 23:41:00,
2013-07-01 18:46:00,83.1,54.1,29.91,North,360,6.0,6.0,37,0.00,CLR,,0.00,WeatherDisplay:10.37,2013-07-01 23:46:00,
2013-07-01 18:51:00,83.0,54.0,29.91,North,5,0.0,0.0,37,0.00,CLR,,0.00,WeatherDisplay:10.37,2013-07-01 23:51:00,
2013-07-01 18:56:00,82.9,54.0,29.91,North,360,3.5,0.0,37,0.00,CLR,,0.00,WeatherDisplay:10.37,2013-07-01 23:56:00,
2013-07-01 19:01:00,82.9,54.0,29.91,North,360,4.6,4.6,37,0.00,CLR,,0.00,WeatherDisplay:10.37,2013-07-02 00:01:00,
2013-07-01 19:06:00,82.7,53.8,29.91,North,360,5.0,5.0,37,0.00,CLR,,0.00,WeatherDisplay:10.37,2013-07-02 00:06:00,
2013-07-01 19:11:00,82.7,53.8,29.91,North,360,3.5,0.0,37,0.00,CLR,,0.00,WeatherDisplay:10.37,2013-07-02 00:11:00,
2013-07-01 19:16:00,82.5,53.6,29.91,North,360,4.6,4.6,37,0.00,CLR,,0.00,WeatherDisplay:10.37,2013-07-02 00:16:00,
2013-07-01 19:17:00,82.5,53.6,29.91,North,360,3.5,3.5,37,0.00,CLR,,0.00,WeatherDisplay:10.37,2013-07-02 00:17:00,
2013-07-01 19:22:00,82.5,53.6,29.91,North,360,3.5,3.5,37,0.00,CLR,,0.00,WeatherDisplay:10.37,2013-07-02 00:22:00,
2013-07-01 19:27:00,82.4,53.5,29.91,North,360,2.3,2.3,37,0.00,CLR,,0.00,WeatherDisplay:10.37,2013-07-02 00:27:00,
2013-07-01 19:32:00,82.3,53.4,29.91,North,360,9.2,9.2,37,0.00,CLR,,0.00,WeatherDisplay:10.37,2013-07-02 00:32:00,
2013-07-01 19:37:00,82.2,54.1,29.92,North,360,4.6,4.6,38,0.00,CLR,,0.00,WeatherDisplay:10.37,2013-07-02 00:37:00,
2013-07-01 19:42:00,82.1,54.7,29.92,North,360,0.0,0.0,39,0.00,CLR,,0.00,WeatherDisplay:10.37,2013-07-02 00:42:00,
2013-07-01 19:47:00,82.0,54.6,29.92,North,360,0.0,0.0,39,0.00,CLR,,0.00,WeatherDisplay:10.37,2013-07-02 00:47:00,
2013-07-01 19:52:00,81.8,54.4,29.92,North,360,1.2,1.2,39,0.00,CLR,,0.00,WeatherDisplay:10.37,2013-07-02 00:52:00,
2013-07-01 19:57:00,81.7,54.3,29.92,North,360,1.2,0.0,39,0.00,CLR,,0.00,WeatherDisplay:10.37,2013-07-02 00:57:00,
2013-07-01 20:02:00,81.6,54.9,29.92,North,360,0.0,0.0,40,0.00,CLR,,0.00,WeatherDisplay:10.37,2013-07-02 01:02:00,
2013-07-01 20:07:00,81.4,54.8,29.92,North,360,0.0,0.0,40,0.00,CLR,,0.00,WeatherDisplay:10.37,2013-07-02 01:07:00,
2013-07-01 20:12:00,81.3,55.3,29.92,North,360,0.0,0.0,41,0.00,CLR,,0.00,WeatherDisplay:10.37,2013-07-02 01:12:00,
2013-07-01 20:17:00,81.1,55.2,29.92,North,360,0.0,0.0,41,0.00,CLR,,0.00,WeatherDisplay:10.37,2013-07-02 01:17:00,
2013-07-01 20:22:00,81.0,55.7,29.92,North,360,0.0,0.0,42,0.00,CLR,,0.00,WeatherDisplay:10.37,2013-07-02 01:22:00,
2013-07-01 20:27:00,80.8,55.6,29.92,North,360,0.0,0.0,42,0.00,CLR,,0.00,WeatherDisplay:10.37,2013-07-02 01:27:00,
2013-07-01 20:32:00,80.6,56.0,29.92,North,360,0.0,0.0,43,0.00,CLR,,0.00,WeatherDisplay:10.37,2013-07-02 01:32:00,
2013-07-01 20:37:00,80.4,55.9,29.92,North,360,0.0,0.0,43,0.00,CLR,,0.00,WeatherDisplay:10.37,2013-07-02 01:37:00,
2013-07-01 20:42:00,80.1,55.6,29.92,North,360,0.0,0.0,43,0.00,CLR,,0.00,WeatherDisplay:10.37,2013-07-02 01:42:00,
2013-07-01 20:47:00,79.9,55.4,29.92,North,360,4.0,4.0,43,0.00,CLR,,0.00,WeatherDisplay:10.37,2013-07-02 01:47:00,
2013-07-01 20:52:00,79.6,55.8,29.92,North,360,0.0,0.0,44,0.00,CLR,,0.00,WeatherDisplay:10.37,2013-07-02 01:52:00,
2013-07-01 20:57:00,79.3,55.5,29.92,North,360,0.0,0.0,44,0.00,CLR,,0.00,WeatherDisplay:10.37,2013-07-02 01:57:00,
2013-07-01 21:02:00,79.1,55.9,29.92,North,360,0.0,0.0,45,0.00,CLR,,0.00,WeatherDisplay:10.37,2013-07-02 02:02:00,
2013-07-01 21:07:00,78.9,55.8,29.93,North,360,0.0,0.0,45,0.00,CLR,,0.00,WeatherDisplay:10.37,2013-07-02 02:07:00,
2013-07-01 21:12:00,78.6,56.1,29.93,North,360,0.0,0.0,46,0.00,CLR,,0.00,WeatherDisplay:10.37,2013-07-02 02:12:00,
2013-07-01 21:17:00,78.3,55.8,29.93,North,360,0.0,0.0,46,0.00,CLR,,0.00,WeatherDisplay:10.37,2013-07-02 02:17:00,
2013-07-01 21:22:00,77.9,56.0,29.93,North,360,0.0,0.0,47,0.00,CLR,,0.00,WeatherDisplay:10.37,2013-07-02 02:22:00,
2013-07-01 21:27:00,77.6,55.8,29.93,North,360,2.3,2.3,47,0.00,CLR,,0.00,WeatherDisplay:10.37,2013-07-02 02:27:00,
2013-07-01 21:32:00,77.3,56.1,29.93,North,360,0.0,0.0,48,0.00,CLR,,0.00,WeatherDisplay:10.37,2013-07-02 02:32:00,
2013-07-01 21:37:00,77.0,55.8,29.93,North,360,0.0,0.0,48,0.00,CLR,,0.00,WeatherDisplay:10.37,2013-07-02 02:37:00,
2013-07-01 21:42:00,76.6,56.0,29.93,North,360,0.0,0.0,49,0.00,CLR,,0.00,WeatherDisplay:10.37,2013-07-02 02:42:00,
2013-07-01 21:47:00,76.1,56.1,29.94,North,360,0.0,0.0,50,0.00,CLR,,0.00,WeatherDisplay:10.37,2013-07-02 02:47:00,
2013-07-01 21:52:00,75.6,56.2,29.94,North,360,0.0,0.0,51,0.00,CLR,,0.00,WeatherDisplay:10.37,2013-07-02 02:52:00,
2013-07-01 21:57:00,75.2,56.4,29.94,North,360,3.5,3.5,52,0.00,CLR,,0.00,WeatherDisplay:10.37,2013-07-02 02:57:00,
2013-07-01 22:02:00,74.9,56.1,29.94,North,360,0.0,0.0,52,0.00,CLR,,0.00,WeatherDisplay:10.37,2013-07-02 03:02:00,
2013-07-01 22:07:00,74.6,56.3,29.94,North,360,4.0,4.0,53,0.00,CLR,,0.00,WeatherDisplay:10.37,2013-07-02 03:07:00,
2013-07-01 22:12:00,74.3,56.6,29.94,North,360,0.0,0.0,54,0.00,CLR,,0.00,WeatherDisplay:10.37,2013-07-02 03:12:00,
2013-07-01 22:17:00,73.9,56.7,29.94,North,360,0.0,0.0,55,0.00,CLR,,0.00,WeatherDisplay:10.37,2013-07-02 03:17:00,
2013-07-01 22:22:00,73.7,56.5,29.94,North,360,0.0,0.0,55,0.00,CLR,,0.00,WeatherDisplay:10.37,2013-07-02 03:22:00,
2013-07-01 22:27:00,73.4,56.7,29.94,North,360,0.0,0.0,56,0.00,CLR,,0.00,WeatherDisplay:10.37,2013-07-02 03:27:00,
2013-07-01 22:32:00,73.1,56.5,29.94,North,360,5.0,5.0,56,0.00,CLR,,0.00,WeatherDisplay:10.37,2013-07-02 03:32:00,
2013-07-01 22:37:00,72.9,56.8,29.94,North,360,0.0,0.0,57,0.00,CLR,,0.00,WeatherDisplay:10.37,2013-07-02 03:37:00,
2013-07-01 22:42:00,72.7,56.6,29.95,North,360,3.5,3.5,57,0.00,CLR,,0.00,WeatherDisplay:10.37,2013-07-02 03:42:00,
2013-07-01 22:47:00,72.6,56.5,29.95,North,360,0.0,0.0,57,0.00,CLR,,0.00,WeatherDisplay:10.37,2013-07-02 03:47:00,
2013-07-01 22:52:00,72.5,56.4,29.95,North,360,0.0,0.0,57,0.00,CLR,,0.00,WeatherDisplay:10.37,2013-07-02 03:52:00,
2013-07-01 22:57:00,72.4,56.8,29.95,North,360,1.2,1.2,58,0.00,CLR,,0.00,WeatherDisplay:10.37,2013-07-02 03:57:00,
2013-07-01 23:01:00,72.3,56.7,29.95,North,360,0.0,0.0,58,0.00,CLR,,0.00,WeatherDisplay:10.37,2013-07-02 04:01:00,
2013-07-01 23:06:00,72.2,56.6,29.95,North,360,0.0,0.0,58,0.00,CLR,,0.00,WeatherDisplay:10.37,2013-07-02 04:06:00,
2013-07-01 23:11:00,72.0,56.9,29.95,North,360,3.5,3.5,59,0.00,CLR,,0.00,WeatherDisplay:10.37,2013-07-02 04:11:00,
2013-07-01 23:16:00,71.9,56.8,29.95,North,360,0.0,0.0,59,0.00,CLR,,0.00,WeatherDisplay:10.37,2013-07-02 04:16:00,
2013-07-01 23:21:00,71.7,56.6,29.95,North,360,0.0,0.0,59,0.00,CLR,,0.00,WeatherDisplay:10.37,2013-07-02 04:21:00,
2013-07-01 23:26:00,71.6,56.5,29.95,North,360,0.0,0.0,59,0.00,CLR,,0.00,WeatherDisplay:10.37,2013-07-02 04:26:00,
2013-07-01 23:31:00,71.5,56.4,29.95,North,360,0.0,0.0,59,0.00,CLR,,0.00,WeatherDisplay:10.37,2013-07-02 04:31:00,
2013-07-01 23:36:00,71.4,56.3,29.96,North,360,0.0,0.0,59,0.00,CLR,,0.00,WeatherDisplay:10.37,2013-07-02 04:36:00,
2013-07-01 23:41:00,71.2,56.6,29.96,North,360,0.0,0.0,60,0.00,CLR,,0.00,WeatherDisplay:10.37,2013-07-02 04:41:00,
2013-07-01 23:46:00,71.1,56.5,29.96,North,360,0.0,0.0,60,0.00,CLR,,0.00,WeatherDisplay:10.37,2013-07-02 04:46:00,
2013-07-01 23:51:00,71.0,56.4,29.96,North,360,2.3,0.0,60,0.00,CLR,,0.00,WeatherDisplay:10.37,2013-07-02 04:51:00,
2013-07-01 23:56:00,70.9,56.3,29.96,North,360,2.3,2.3,60,0.00,CLR,,0.00,WeatherDisplay:10.37,2013-07-02 04:56:00,